Terminal Aerodrome Forecast
Issued by NWS

Home | Current Version | Previous Version | Text Only | Print | Product List | Glossary On
Versions: 1 2 3 4 5 6 7 8 9 10 11 12 13 14 15 16 17 18
000
FTPA31 PHFO 272337
TAFHNY
TAF
PHNY 272337Z 2800/2824 04016G22KT P6SM BKN035
     FM280600 05011KT P6SM SCT025
     FM281900 04014G20KT P6SM SCT025
     FM282200 04018G28KT P6SM SCT025=

USA.gov is the U.S. government's official web portal to all federal, state and local government web resources and services.